Location: Newark
(45.9456°N, 15.4064°E)
Time: 00:17:22
(UTC+00:00)

Vanguard 3 - Pass Details

Date: 30 January 2020
Orbit: 508 x 3263 km, 33.3° (Epoch: 25 February)

Event Time Altitude Azimuth Distance (km) Brightness Sun altitude
Rises 14:03:26 0° 219° (SW) 6,168 13.5 15.4°
Reaches altitude 10° 14:07:31 10° 212° (SSW) 5,465 13.6 15.0°
Maximum altitude 14:23:06 40° 151° (SSE) 4,180 11.1 13.1°
Drops below altitude 10° 14:40:07 10° 92° (E) 5,972 11.2 10.8°
Sets 14:44:47 0° 86° (E) 6,774 11.3 10.2°
